Tracking 31027 objects as of 19-Jul-2025
HD Live streaming from Space Station
objects crossing your sky now

NOAA 16 DEB

Track NOAA 16 DEB now!
10-day predictions


NORAD ID: 41264
Int'l Code: 2000-055FQ
Perigee: 814.0 km
Apogee: 817.6 km
Inclination: 98.6 °
Period: 101.1 minutes
Semi major axis: 7186 km
RCS: Unknown
Launch date: September 21, 2000
Source: United States (US)
Launch site: AIR FORCE WESTERN TEST RANGE (AFWTR)

Note: This is SATELLITE DEBRIS
Your satellite tracking list
FREGAT DEB
Track 1 satellite(s)




NASA's NSSDC Master Catalog

Two Line Element Set (TLE):
1 41264U 00055FQ  25198.59879089  .00002180  00000-0  95089-3 0  9992
2 41264  98.6475 253.5371 0002509  53.5834 306.5576 14.24952186494133
Source of the keplerian elements: AFSPC